Tracking 19909 objects as of 22-Oct-2019
HD Live streaming from Space Station
objects crossing your sky now

NAVSTAR 64 (USA 206)

Track NAVSTAR 64 (USA 206) now!
NAVSTAR 64 (USA 206) is classified as:


NORAD ID: 35752
Int'l Code: 2009-043A
Perigee: 20,037.8 km
Apogee: 20,343.2 km
Inclination: 54.5 °
Period: 718.0 minutes
Semi major axis: 26561 km
RCS: 6.3 m2 (large)
Launch date: August 17, 2009
Source: United States (US)
Launch site: AIR FORCE EASTERN TEST RANGE (AFETR)
PRN: 5
aabbcc
Your satellite tracking list
Your tracking list is empty




NASA's NSSDC Master Catalog

Two Line Element Set (TLE):
1 35752U 09043A   19295.02760000  .00000070  00000-0  00000+0 0  9995
2 35752  54.4801 124.7511 0057492  44.4943 312.7145  2.00550371 74593
Source of the keplerian elements: AFSPC